• Join FlightAware (Why Join?)
  • Login
  • US Flag 
09:35AM EDT


 

Airport Tracker/Info


-or-


 

Live Flight TrackerFlight Track Log ✈ GJS3706 ✈ 10-Jul-2013 ✈ KDEN - KTUL

Flight Track Log - Related Links

Times and Time Zones

All times are in EDT time to prevent confusion due to time zone crossing. See the GJS3706 flight status page for this flight to view local times or setup timezone preferences in your user account.

Time Position Orientation Groundspeed Altitude Reporting Facility
EDT Latitude Longitude Course Direction KTS MPH feet Rate Location/Type
07:48PM 39.8167 -104.6500 108° East 174 200 6,500  Level Denver TRACON
07:49PM 39.8000 -104.5833 108° East 216 249 8,300 1,560 Climbing Denver TRACON
07:50PM 39.7781 -104.5286 118° Southeast 238 274 9,100 1,380 Climbing Denver Center
07:51PM 39.7519 -104.4314 109° East 285 328 10,700 1,680 Climbing Denver Center
07:52PM 39.7369 -104.3133 99° East 320 368 12,600 1,740 Climbing Denver Center
07:53PM 39.7347 -104.2022 91° East 310 357 14,400 1,740 Climbing Denver Center
07:54PM 39.7336 -104.0739 91° East 331 381 16,200 960 Climbing Denver Center
07:55PM 39.7306 -103.9422 92° East 362 417 16,500 720 Climbing Denver Center
07:56PM 39.7433 -103.7978 83° East 402 463 17,700 1,200 Climbing Denver Center
07:57PM 39.7581 -103.6400 83° East 395 455 19,100 1,260 Climbing Denver Center
07:58PM 39.7794 -103.4906 79° East 417 480 20,400 1,200 Climbing Denver Center
07:59PM 39.8086 -103.3408 76° East 425 489 21,700 1,140 Climbing Denver Center
08:00PM 39.8347 -103.1886 77° East 432 497 22,800 960 Climbing Denver Center
08:01PM 39.8633 -103.0336 76° East 440 506 23,700 840 Climbing Denver Center
08:02PM 39.8781 -102.8694 83° East 454 522 24,600 840 Climbing Denver Center
08:03PM 39.8592 -102.6636 97° East 474 545 25,500 840 Climbing Denver Center
08:04PM 39.8417 -102.4975 98° East 484 557 26,400 900 Climbing Denver Center
08:05PM 39.8236 -102.3011 97° East 489 563 27,400 780 Climbing Denver Center
08:06PM 39.7722 -102.1461 113° Southeast 496 571 28,100 600 Climbing Denver Center
08:07PM 39.6806 -101.9856 127° Southeast 497 572 28,700 540 Climbing Denver Center
08:08PM 39.6044 -101.8392 124° Southeast 510 587 29,300 540 Climbing Denver Center
08:09PM 39.5303 -101.6919 123° Southeast 511 588 29,900 240 Climbing Denver Center
08:10PM 39.4606 -101.5119 117° Southeast 507 583 29,900 -360 Level Denver Center
08:12PM 39.4014 -101.2614 107° East 482 555 29,000 -480 Descending Kansas City Center
08:12PM 39.3783 -101.1711 108° East 481 554 29,000  Level Denver Center
08:14PM 39.3261 -101.0208 114° Southeast 484 557 29,000  Level Denver Center
08:15PM 39.2378 -100.8619 126° Southeast 488 562 29,000  Level Denver Center
08:16PM 39.1367 -100.6781 125° Southeast 492 566 29,000  Level Denver Center
08:17PM 39.0614 -100.5439 126° Southeast 487 560 29,000  Level Denver Center
08:18PM 38.9769 -100.3944 126° Southeast 486 559 29,000  Level Denver Center
08:19PM 38.9006 -100.2583 126° Southeast 488 562 29,000  Level Denver Center
08:20PM 38.8097 -100.0992 126° Southeast 492 566 29,000  Level Denver Center
08:21PM 38.7333 -99.9625 126° Southeast 492 566 29,000  Level Denver Center
08:22PM 38.6425 -99.8036 126° Southeast 493 567 29,000  Level Denver Center
08:23PM 38.5644 -99.6692 127° Southeast 491 565 29,000  Level Denver Center
08:24PM 38.4733 -99.5106 126° Southeast 493 567 29,000  Level Denver Center
08:25PM 38.3831 -99.3542 126° Southeast 492 566 29,000  Level Kansas City Center
08:26PM 38.3014 -99.2144 127° Southeast 493 567 29,000  Level Kansas City Center
08:27PM 38.2197 -99.0753 127° Southeast 493 567 29,000  Level Kansas City Center
08:28PM 38.1364 -98.9347 127° Southeast 496 571 29,000  Level Kansas City Center
08:29PM 38.0386 -98.7683 127° Southeast 493 567 29,000  Level Kansas City Center
08:30PM 37.9564 -98.6283 127° Southeast 494 568 29,000  Level Kansas City Center
08:31PM 37.8736 -98.4897 127° Southeast 496 571 29,000  Level Kansas City Center
08:32PM 37.7908 -98.3508 127° Southeast 498 573 29,000  Level Kansas City Center
08:33PM 37.7078 -98.2128 127° Southeast 499 574 29,000  Level Kansas City Center
08:34PM 37.6153 -98.0603 127° Southeast 501 577 29,000  Level Kansas City Center
08:35PM 37.5406 -97.9361 127° Southeast 502 578 29,000  Level Kansas City Center
08:37PM 37.4392 -97.7711 128° Southeast 501 577 29,000  Level Kansas City Center
08:38PM 37.3553 -97.6331 127° Southeast 499 574 29,000  Level Kansas City Center
08:39PM 37.2708 -97.4956 128° Southeast 500 575 29,000 -420 Level Kansas City Center
08:40PM 37.1881 -97.3597 127° Southeast 496 571 28,200 -1,560 Descending Kansas City Center
08:41PM 37.1025 -97.2217 128° Southeast 498 573 25,900 -2,280 Descending Kansas City Center
08:42PM 37.0197 -97.0869 128° Southeast 495 570 23,600 -2,280 Descending Kansas City Center
08:43PM 36.9394 -96.9564 128° Southeast 484 557 21,300 -2,220 Descending Kansas City Center
08:44PM 36.8617 -96.8314 128° Southeast 471 542 19,100 -2,220 Descending Kansas City Center
08:45PM 36.7739 -96.6975 129° Southeast 433 498 16,800 -2,100 Descending Kansas City Center
08:46PM 36.7042 -96.5850 128° Southeast 420 483 14,900 -1,920 Descending Kansas City Center
08:47PM 36.6408 -96.4842 128° Southeast 390 449 13,000 -1,800 Descending Kansas City Center
08:48PM 36.5708 -96.3706 127° Southeast 381 438 11,400 -1,380 Descending Kansas City Center
08:49PM 36.5156 -96.2839 128° Southeast 310 357 10,300 -1,380 Descending Kansas City Center
08:50PM 36.4722 -96.2142 128° Southeast 295 339 8,800 -1,740 Descending Kansas City Center
08:51PM 36.4208 -96.1272 126° Southeast 288 331 7,000 -1,320 Descending Kansas City Center
08:52PM 36.3700 -96.0428 127° Southeast 280 322 6,100 -420 Descending Kansas City Center
08:53PM 36.3142 -95.9856 140° Southeast 289 333 6,100 -60 Level Kansas City Center
08:54PM 36.2222 -95.9836 179° South 281 323 6,000 -420 Descending Kansas City Center
08:55PM 36.1656 -95.9836 180° South 219 252 5,400 -480 Descending Kansas City Center
08:56PM 36.1025 -95.9803 178° South 213 245 5,100 -720 Descending Kansas City Center
08:57PM 36.0644 -95.9528 150° Southeast 182 209 4,000 -1,380 Descending Kansas City Center
08:58PM 36.0600 -95.9017 96° East 185 213 2,600 -960 Descending Kansas City Center
08:59PM 36.1050 -95.8881 14° North 141 162 2,100 -600 Descending Kansas City Center
09:00PM 36.1425 -95.8858 North 136 157 1,500 -600 Descending Kansas City Center
09:01PM 36.1856 -95.8831 North 141 162 800 -600 Descending Kansas City Center